Flag for U.S.A. Weather past 2 weeks in Orlando, Florida, U.S.A.

Now
81 °F

Broken clouds.


Feels Like: 85 °F
Forecast: 73 / 83 °F
Wind: 9 mph from West

Location: Orlando Executive Airport

Current Time: Sep 17, 2014 at 2:12:49 PM

Latest Report: Sep 17, 2014 at 12:53 PM


Visibility: 10 mi

Pressure: 29.95 "Hg

Humidity: 74%

Dew point: 72 °F

Location of OrlandoLocation

Historic Weather in Orlando — Graph

°F

Orlando temperature yesterday

Maximum temperature yesterday: 91 °F (at 12:53 PM)
Minimum temperature yesterday: 77 °F (at 6:53 AM)
Average temperature yesterday: 81 °F

Past Weeks' High & Low Weather Summary

 TemperatureHumidityPressure
High92 °F (Sep 2, 12:53 PM)97% (Sep 5, 8:53 PM)30.18 "Hg (Sep 5, 8:53 PM)
Low73 °F (Sep 6, 3:53 AM)45% (Sep 9, 2:53 PM)29.94 "Hg (Sep 17, 4:53 AM)
Average81 °F78%30.05 "Hg
* Reported Sep 2 12:53 PM — Sep 17 12:53 PM, Orlando, Weather by CustomWeather, © 2014

Note: Actual official high and low records may vary slightly from our data, if they occured in-between our weather recording intervals... More about our weather records

Advertising

Orlando weather history for previous 24 hours

 ConditionsComfort  
Time TempWeatherWind HumidityBarometerVisibility
12:53 PM
Sep 17
81 °FBroken clouds.9 mph74%29.95 "Hg10 mi
11:53 AM83 °FBroken clouds.13 mph72%29.96 "Hg10 mi
10:53 AM81 °FPartly sunny.8 mph74%29.96 "Hg10 mi
9:53 AM80 °FSunny.8 mph79%29.96 "Hg10 mi
9:00 AM77 °FPassing clouds.14 mph88%29.96 "Hg10 mi
7:53 AM75 °FClear.6 mph90%29.96 "Hg10 mi
6:53 AM74 °FPassing clouds.7 mph94%29.96 "Hg10 mi
5:53 AM74 °FLight rain. Partly cloudy.6 mph97%29.94 "Hg10 mi
4:53 AM76 °FPartly cloudy.7 mph91%29.94 "Hg10 mi
3:53 AM76 °FMostly cloudy.5 mph91%29.94 "Hg8 mi
3:01 AM76 °FPassing clouds.5 mph88%29.95 "Hg10 mi
1:53 AM77 °FClear.7 mph85%29.97 "Hg10 mi
12:53 AM77 °FClear.6 mph85%29.98 "Hg10 mi
11:53 PM
Sep 16
77 °FClear.6 mph85%29.99 "Hg10 mi
10:53 PM77 °FClear.7 mph85%30.01 "Hg10 mi
9:53 PM78 °FClear.7 mph82%30.01 "Hg10 mi
8:53 PM78 °FClear.8 mph82%30.01 "Hg10 mi
7:53 PM78 °FSunny.8 mph82%30.02 "Hg10 mi
6:53 PM79 °FPassing clouds.7 mph77%30.00 "Hg10 mi
5:53 PM79 °FPartly sunny.10 mph79%30.01 "Hg10 mi
4:53 PM86 °FBroken clouds.10 mph61%29.99 "Hg10 mi
3:53 PM88 °FScattered clouds.9 mph54%30.00 "Hg10 mi
2:53 PM89 °FSunny.8 mph53%30.02 "Hg10 mi
Weather by CustomWeather, © 2014

See weather overviewHow to use our weather pages